Zurück zum Katalog

STARLINK-5040

AktivKommunikationVLEO
NORAD 53914·PAYLOAD·🇺🇸 United States

Gestartet Sep 24, 2022 von Cape Canaveral Space Force Station

Loading…

Nächste Überflüge (nächste 24 Stunden)

TLE

AktuellSource: CelesTrak SupGP

Epoche: Sep 14, 2026, 21:56 UTC

1 53914C 22119AE  26257.91437500  .00185720  00000+0  93196-2 0  2577
2 53914  53.1607 183.6215 0001590  93.6882  36.4995 15.16710789    15

Verfolge STARLINK-5040 in Echtzeit mit AllMySat

Download on the App Store